Location: Gila Cliff Dwellings National Monument
(33.2240°N, 108.2417°W)
Time: 23:03:50
(UTC-06:00)

Cosmos 2322 Rocket - Visible Passes

Search period start: 20 April 2015 00:00
Search period end: 30 April 2015 00:00
Orbit: 834 x 850 km, 71.0° (Epoch: 19 April)

Date Brightness Start Highest point End Pass type
(mag) Time Alt. Az. Time Alt. Az. Time Alt. Az.
20 Apr 2.0 04:24:22 70° S 04:25:04 86° ESE 04:30:42 10° NNE visible
20 Apr 4.1 06:08:03 10° WNW 06:09:59 11° NW 06:11:34 10° NW visible
21 Apr 2.1 04:10:05 82° ESE 04:10:07 82° ESE 04:15:45 10° NNE visible
21 Apr 4.1 05:52:40 10° WNW 05:54:59 12° NW 05:56:57 10° NNW visible
22 Apr 2.3 03:55:43 70° ENE 03:55:43 70° ENE 04:00:47 10° NNE visible
22 Apr 4.1 05:37:33 10° W 05:39:58 13° NW 05:42:16 10° NNW visible
23 Apr 2.7 03:41:19 56° NE 03:41:19 56° NE 03:45:50 10° NNE visible
23 Apr 4.0 05:23:08 12° WNW 05:24:58 14° NW 05:27:33 10° NNW visible
24 Apr 3.0 03:26:52 46° NE 03:26:52 46° NE 03:30:52 10° NNE visible
24 Apr 4.0 05:08:41 14° WNW 05:09:58 14° NW 05:12:48 10° NNW visible
25 Apr 3.4 03:12:22 39° NE 03:12:22 39° NE 03:15:54 10° NNE visible
25 Apr 4.0 04:54:11 15° WNW 04:54:58 15° NW 04:58:01 10° NNW visible
26 Apr 3.7 02:57:49 33° NE 02:57:49 33° NE 03:00:55 10° NNE visible
26 Apr 4.0 04:39:39 16° WNW 04:39:58 16° NW 04:43:14 10° NNW visible
27 Apr 3.9 02:43:15 28° NE 02:43:15 28° NE 02:45:57 10° NNE visible
27 Apr 4.0 04:25:04 17° NW 04:25:04 17° NW 04:28:25 10° NNW visible
28 Apr 4.1 02:28:38 25° NE 02:28:38 25° NE 02:30:58 10° NNE visible
28 Apr 4.0 04:10:27 18° NW 04:10:27 18° NW 04:13:36 10° NNW visible
29 Apr 4.3 02:14:00 22° NE 02:14:00 22° NE 02:15:59 10° NNE visible
29 Apr 4.0 03:55:49 18° NW 03:55:49 18° NW 03:58:47 10° NNW visible
